Theta_e
322 323 326 327 328 327 327 326 323 323 325 324 319 317 318 320 320 320 320 318 315 311 308 306 306 307 308 309 310 312 312 310 311 316 319 319 319 320 321 322 322 322 320 318 318 319 321 322 323 324 325 325 324 323 321 321 322 321 321 320 314 310 309 309 311 310 309 309 309 309 310 310 310 309 308 308 308 308 308 308 308 308 308 308 309
322 323 325 327 328 327 328 326 323 325 325 321 317 317 319 319 318 318 316 315 312 308 306 305 305 306 306 306 308 311 311 309 311 316 319 320 321 321 322 322 322 320 318 316 316 316 318 322 323 324 325 325 323 322 321 321 321 320 320 319 314 310 309 309 310 310 309 310 310 309 310 310 309 309 309 308 308 308 308 308 308 308 308 308 309
322 322 323 326 328 327 328 326 324 326 324 317 316 319 320 319 317 316 314 311 308 306 305 304 305 305 305 305 307 309 309 307 309 315 319 319 320 321 322 322 321 319 316 315 315 314 316 320 323 324 324 324 323 322 322 321 321 320 318 317 315 312 311 310 310 310 310 310 310 310 309 309 309 309 309 309 309 308 308 308 308 309 308 308 309
323 322 322 325 328 328 327 326 325 326 322 317 318 321 321 319 317 315 312 308 306 305 305 305 305 305 304 305 306 307 307 305 307 313 317 318 319 320 321 321 320 318 315 314 315 314 315 319 323 323 324 324 322 322 321 319 319 317 315 314 314 313 312 312 312 311 310 310 309 309 309 309 309 309 309 309 309 309 309 308 308 309 309 309 309
324 323 322 324 327 327 326 326 326 325 322 319 321 322 321 319 316 313 309 306 306 306 306 306 305 305 305 305 306 306 306 306 307 311 315 317 317 318 319 320 320 318 315 315 315 314 315 319 322 323 323 323 321 320 319 318 317 316 314 314 314 314 314 314 313 313 312 311 310 309 309 309 309 309 309 309 309 309 309 309 309 309 309 309 309
326 325 324 325 326 327 326 326 324 323 322 321 322 322 321 318 315 310 308 307 308 308 308 308 308 307 306 305 305 305 306 308 309 311 313 315 315 315 315 317 319 318 316 315 315 314 314 317 321 323 322 321 319 318 317 317 317 316 315 315 315 315 315 316 316 316 315 314 312 311 309 309 309 309 309 309 309 310 310 309 309 309 309 309 310
327 327 325 325 326 326 326 326 324 323 323 322 322 322 320 318 314 310 309 310 310 310 311 311 311 312 311 309 308 307 308 308 309 310 311 312 313 313 311 311 314 317 317 316 315 314 313 315 317 320 321 320 318 317 316 316 316 315 314 314 315 315 315 316 317 318 317 317 316 313 311 310 309 309 309 309 309 309 309 309 309 309 310 310 310
327 327 325 324 326 326 326 325 324 323 323 322 322 321 319 318 314 310 311 312 312 312 313 313 313 313 313 313 313 312 311 311 310 309 308 308 309 308 307 306 308 311 315 316 315 313 312 313 315 316 317 317 316 316 315 315 314 314 314 314 314 314 314 315 315 317 318 318 318 316 314 311 310 309 309 309 309 309 309 309 309 309 309 309 309
326 325 324 324 325 326 325 324 323 323 323 322 322 320 319 318 315 312 312 313 314 314 314 314 313 313 313 314 314 314 314 313 313 312 310 308 308 307 308 306 305 307 310 313 312 311 311 312 314 314 315 314 314 314 314 314 314 314 314 314 314 314 314 314 314 314 315 316 317 317 316 312 310 310 310 310 310 310 310 310 309 309 309 309 309
325 324 324 324 325 325 324 323 322 322 322 321 321 320 319 319 317 315 315 315 314 314 315 315 314 313 314 314 314 314 314 314 314 314 313 311 309 309 310 310 308 308 309 311 311 311 311 312 313 314 314 314 314 314 314 314 314 314 315 315 315 315 315 314 315 314 314 314 315 315 314 312 311 312 312 312 311 311 311 311 310 310 310 309 309
325 325 325 325 325 323 322 322 322 322 322 321 320 318 318 318 317 316 317 317 314 313 315 316 315 314 313 313 314 314 314 314 314 314 314 313 312 310 310 311 311 311 312 314 314 314 314 314 314 314 314 314 314 314 314 314 314 314 315 315 315 314 314 315 315 315 315 315 314 314 314 313 313 313 314 313 312 311 311 311 311 311 311 310 310
325 324 324 324 323 321 321 323 322 321 320 319 318 317 318 319 318 318 317 316 315 315 315 316 316 315 313 313 313 314 314 314 314 314 314 314 314 313 312 312 312 312 313 314 314 314 314 314 314 314 314 314 314 314 314 314 314 314 314 314 314 314 314 314 314 314 314 314 315 314 315 314 314 314 314 314 314 313 312 311 311 312 311 311 311
323 323 322 322 321 319 321 322 321 320 320 319 319 319 319 319 319 318 318 317 317 317 317 316 317 316 315 314 314 314 315 315 315 315 315 315 315 314 314 313 313 313 312 312 312 312 312 312 312 313 313 313 314 314 314 313 314 313 313 312 312 312 312 312 312 312 312 312 313 313 313 314 314 314 314 314 314 314 313 312 312 312 312 312 311
322 322 321 322 320 319 320 321 321 321 320 320 320 320 320 319 319 318 318 318 318 318 318 318 318 318 318 317 317 316 316 316 316 316 316 316 315 315 315 315 314 314 314 313 313 313 312 312 312 312 312 313 313 313 313 313 313 313 313 312 312 312 312 312 312 312 312 312 312 312 312 313 314 314 314 314 314 314 314 313 313 312 312 312 311
321 321 320 319 318 318 319 319 320 320 320 319 319 319 319 318 318 318 318 318 317 317 318 318 318 318 318 318 318 318 317 317 317 317 317 317 317 316 316 316 316 316 316 315 315 314 314 314 314 313 313 313 313 313 313 313 313 313 313 313 313 313 313 314 314 314 314 314 314 314 314 314 314 314 314 314 314 314 314 314 313 313 312 311 311
318 319 318 316 316 316 316 317 317 318 318 319 318 318 318 318 318 318 318 318 318 317 318 318 318 318 318 318 318 318 318 318 318 318 318 318 318 318 318 318 318 318 317 317 317 316 316 316 315 315 315 314 314 314 314 314 314 314 315 314 314 315 315 315 315 315 315 316 316 316 316 315 315 315 315 315 314 314 314 314 314 313 311 310 310
311 312 312 312 313 313 313 314 315 316 317 318 318 318 318 318 318 318 318 318 318 318 318 318 318 318 318 318 318 319 319 319 319 319 319 319 319 319 319 319 319 319 319 319 318 318 318 317 317 317 316 316 316 316 316 316 315 315 315 315 315 315 315 315 315 315 316 316 316 316 316 316 316 316 316 316 315 315 315 314 314 312 311 310 310
305 305 305 306 307 308 308 309 311 312 314 315 316 316 316 316 316 316 316 317 318 318 318 318 318 318 317 318 318 318 318 319 318 318 318 318 318 318 318 319 319 319 319 319 319 319 319 318 318 318 318 318 318 318 318 317 317 317 317 317 317 316 316 316 316 316 316 316 316 316 316 316 316 316 316 316 316 315 315 314 314 313 311 311 311
305 305 304 304 304 304 305 305 306 307 308 309 309 309 310 310 311 312 312 313 313 314 314 314 314 314 315 315 315 315 315 316 316 316 315 315 316 316 316 316 317 317 317 317 318 318 318 318 318 318 318 318 318 318 318 318 318 318 318 318 318 317 317 317 317 316 316 317 317 316 316 315 315 316 316 316 315 315 315 314 314 313 312 312 311
307 307 306 306 306 306 306 306 306 306 307 307 307 307 307 307 306 306 306 306 307 307 307 307 307 308 308 308 309 308 309 309 310 310 311 311 311 312 312 312 312 313 313 313 314 314 315 315 315 315 316 316 316 316 316 317 317 317 317 317 317 317 317 317 317 316 316 316 316 316 315 315 315 315 315 315 315 314 314 314 314 313 312 311 310
305 306 306 307 307 307 307 307 307 306 306 307 306 307 307 307 306 305 304 304 304 303 303 303 303 303 303 303 303 303 303 303 303 304 304 305 305 305 306 306 306 306 307 307 308 308 309 309 310 310 311 312 312 313 314 315 315 316 316 316 316 316 316 315 315 315 315 314 314 314 313 313 313 313 314 314 313 313 313 313 313 313 312 310 309
302 302 303 303 304 304 303 303 304 304 303 303 303 304 304 304 304 303 303 302 301 301 301 301 300 301 301 300 300 300 300 300 300 300 300 301 301 301 301 301 301 301 301 302 302 302 303 303 303 304 305 305 307 308 309 311 313 314 315 315 315 315 315 314 314 314 313 313 312 311 311 310 310 311 312 312 312 313 313 313 312 312 311 310 309
299 299 299 299 300 300 300 300 300 300 300 300 300 300 301 301 301 301 301 300 300 300 299 299 299 299 299 299 299 299 299 299 299 299 299 299 299 299 299 299 299 299 299 299 299 299 300 300 300 300 301 301 301 302 303 305 307 310 312 314 315 314 314 313 313 313 312 311 311 310 310 309 309 309 310 310 310 312 312 312 311 311 310 310 308
297 297 297 297 298 298 298 298 298 298 298 298 298 299 299 299 299 299 299 299 299 299 299 299 299 299 299 299 299 299 299 299 299 299 299 299 299 299 299 299 299 299 299 299 299 299 299 299 299 299 299 299 299 299 300 300 301 303 307 311 313 314 314 313 312 312 311 311 311 310 310 309 309 309 309 309 310 311 311 311 310 309 308 307 306
297 297 297 297 297 297 297 297 297 297 298 298 298 298 298 298 298 298 298 298 298 298 298 298 298 298 299 298 299 299 299 298 298 298 298 298 298 298 298 298 298 298 299 299 299 299 299 299 299 299 299 299 299 299 299 299 299 299 301 305 310 314 315 314 313 312 312 311 311 310 310 309 309 309 310 310 310 310 310 309 308 306 305 305 304
296 296 296 296 297 297 297 297 297 297 297 297 297 298 298 298 298 298 298 298 298 298 298 298 298 298 298 298 298 298 297 297 297 297 297 297 297 297 297 297 297 298 298 298 298 298 298 298 298 298 298 298 299 299 299 298 299 299 299 300 304 311 315 315 314 314 313 311 311 310 309 309 309 310 310 310 309 309 308 307 306 305 304 303 303
296 296 296 296 297 297 297 297 297 297 297 297 297 297 297 297 297 297 297 297 297 297 297 297 297 297 297 297 297 297 297 297 297 297 297 297 297 297 297 296 297 297 297 297 297 297 298 298 298 298 298 298 299 299 299 299 299 299 299 299 301 307 312 313 313 313 312 311 311 310 310 309 309 309 310 310 309 307 306 305 304 304 303 302 301
296 296 296 297 297 297 297 297 297 297 296 297 297 297 297 297 297 297 297 297 297 297 297 297 297 297 297 297 297 297 297 298 298 298 298 297 297 297 297 297 297 297 296 296 296 296 297 297 298 298 298 299 299 300 300 300 300 300 301 302 304 307 310 312 312 312 311 311 310 310 309 308 308 308 310 310 308 306 304 304 303 303 302 301 300
296 296 297 297 297 297 296 296 296 296 296 296 296 296 296 296 297 297 297 297 297 297 297 297 297 297 297 297 298 298 298 298 298 298 298 298 298 297 297 297 297 297 297 297 296 296 297 297 297 298 298 299 299 300 301 301 302 303 303 304 306 309 311 312 312 311 310 310 309 309 309 308 308 308 309 308 306 304 303 303 303 302 301 300 299
296 296 296 296 296 296 296 296 296 295 296 296 296 296 296 296 297 297 297 297 297 297 297 297 297 297 298 298 298 298 298 298 298 298 298 298 297 297 297 297 297 297 297 297 297 297 297 297 297 298 298 299 299 300 301 302 304 305 305 305 306 308 310 311 310 310 310 309 309 309 308 308 307 307 307 306 304 302 302 302 302 301 299 298 297
297 297 296 296 295 295 295 295 295 295 296 296 296 296 296 296 297 297 297 297 298 298 298 297 297 298 298 298 298 298 298 298 299 299 298 298 298 297 297 297 297 297 297 297 297 297 297 297 297 298 298 299 299 300 301 301 303 305 306 306 306 307 308 308 308 308 308 307 307 307 307 307 307 307 306 304 302 302 302 301 300 299 298 296 295
296 296 295 295 295 295 295 295 295 295 296 296 296 296 296 296 297 297 298 298 298 298 298 298 298 298 298 298 298 298 298 299 299 299 299 298 298 298 297 297 297 297 297 297 297 297 297 298 298 298 299 299 300 300 301 302 303 304 304 304 304 304 305 305 305 305 305 304 305 305 306 307 306 305 304 302 302 301 301 300 298 297 296 295 293
296 295 295 294 294 294 295 295 295 296 296 296 296 296 296 296 297 297 298 298 298 298 298 298 298 298 297 297 297 297 298 299 299 299 299 299 298 298 297 297 297 297 297 297 297 298 298 298 299 299 299 299 300 301 302 303 304 303 303 302 302 301 301 302 302 303 304 304 305 305 306 305 304 302 302 301 301 300 299 298 297 295 294 293 293
296 296 295 295 294 295 295 295 295 296 296 296 296 295 296 296 296 297 298 298 298 298 298 297 297 297 297 297 297 297 297 299 299 299 299 299 298 298 298 297 297 297 297 298 298 298 298 298 299 299 299 299 299 300 301 302 302 302 302 302 301 301 300 300 300 302 303 304 305 305 304 302 301 301 300 299 299 298 297 296 295 294 293 293 292
295 296 296 295 295 295 295 295 295 296 296 296 296 295 295 295 295 296 297 297 297 298 298 297 297 297 297 297 297 297 297 298 299 299 299 299 299 299 298 298 298 298 298 298 298 298 298 299 299 298 298 299 299 299 300 300 301 301 301 301 301 301 300 300 301 302 303 304 304 303 302 301 300 300 299 298 297 296 295 294 293 293 292 292 292
295 295 296 296 295 294 295 295 295 295 296 296 296 296 295 295 295 295 295 296 296 297 297 297 297 297 297 297 297 297 297 297 298 298 299 299 299 299 299 299 299 298 298 298 298 298 298 299 299 299 299 300 300 300 300 300 301 301 301 301 301 301 301 301 302 302 302 302 301 300 300 300 299 299 297 296 295 294 293 293 293 292 292 291 291
295 295 295 295 295 295 294 295 295 295 295 296 296 296 296 295 295 295 295 295 295 296 296 297 297 297 296 296 296 296 296 297 297 298 299 299 299 299 299 299 298 299 299 299 299 299 299 299 299 299 300 300 300 300 300 300 301 301 301 301 301 301 301 301 301 301 300 300 299 299 298 298 297 296 295 294 293 293 292 292 292 291 291 291 291
295 295 295 295 295 295 294 294 294 295 295 295 295 295 295 295 295 295 295 295 295 295 296 296 296 296 296 296 296 296 296 297 297 298 299 299 299 299 298 297 298 298 298 298 298 298 298 298 298 299 299 299 299 299 299 300 301 301 301 301 301 300 300 299 299 298 298 298 298 297 296 295 294 294 293 293 292 292 291 291 291 291 291 291 291
294 295 294 294 294 295 295 294 294 294 295 295 295 295 295 295 295 295 295 295 295 295 295 295 296 295 296 296 296 296 297 297 297 298 299 299 298 298 298 298 298 299 298 298 298 298 298 299 299 299 299 298 298 298 298 299 299 299 299 299 298 298 297 297 297 297 297 297 296 296 295 294 294 293 292 292 291 291 291 291 291 290 290 290 291
294 294 294 294 294 294 295 295 295 294 294 294 294 294 294 294 295 294 294 294 294 294 295 295 295 295 295 296 296 296 297 297 297 298 298 298 298 298 298 299 299 299 299 299 299 299 299 299 299 298 298 297 297 297 297 297 297 297 297 297 297 296 296 296 296 296 295 295 295 294 294 293 293 292 291 291 291 291 291 291 290 290 290 291 291
295 294 294 294 294 294 294 295 295 295 294 294 294 294 294 294 294 294 294 294 293 294 294 294 294 295 295 296 296 296 296 296 297 297 298 298 298 298 298 298 299 298 298 299 299 299 298 298 298 297 297 297 296 296 296 296 296 296 296 296 296 296 295 295 294 294 293 293 293 293 292 292 292 291 291 291 291 291 290 290 290 290 290 290 290
295 294 294 294 294 294 294 294 295 295 295 295 294 294 294 294 294 294 293 293 293 293 294 294 294 295 295 296 296 296 296 296 296 296 296 297 297 298 298 298 298 298 298 298 298 298 298 297 297 296 296 296 296 296 296 296 295 295 296 295 295 295 294 294 293 292 292 292 292 292 291 291 291 291 290 290 290 290 290 290 290 290 290 290 290
295 294 294 294 294 294 294 294 294 295 295 295 295 294 294 293 293 293 293 293 293 294 294 294 294 294 295 295 296 296 296 296 296 296 296 296 297 297 298 298 298 298 298 298 298 297 297 297 297 296 295 295 296 296 296 296 295 295 295 295 294 293 293 292 292 292 291 291 291 291 290 290 290 290 290 290 290 290 290 290 290 290 290 290 290
295 294 294 294 294 294 293 294 294 295 295 294 294 293 292 292 293 293 293 293 293 294 293 293 293 294 295 295 295 295 296 296 296 296 296 296 296 297 297 297 297 297 298 298 298 297 296 296 297 296 296 296 296 296 296 295 295 295 294 293 293 292 292 292 292 291 291 290 290 290 290 290 290 290 290 290 290 290 290 290 290 290 290 290 290
295 294 294 293 294 293 293 293 294 295 294 293 292 292 292 292 293 293 293 293 293 293 293 293 293 294 294 294 294 294 295 295 295 296 296 296 296 296 296 297 297 297 298 298 298 297 296 296 296 296 296 296 296 296 295 295 294 294 293 292 292 292 292 292 292 291 290 290 289 289 289 289 289 289 289 290 290 290 290 290 290 290 290 290 290
295 295 294 293 293 293 293 293 294 295 294 293 292 292 292 293 293 293 293 293 292 293 293 293 293 293 293 293 294 294 294 294 294 294 294 295 295 295 296 297 297 297 297 297 297 297 296 296 296 296 296 295 295 295 294 294 293 293 292 292 292 292 292 292 292 291 290 289 289 289 289 289 289 289 289 290 290 290 290 290 290 290 290 290 290
295 294 293 292 293 293 293 293 294 294 293 292 292 292 292 292 293 293 293 292 292 293 293 293 293 293 293 293 293 293 293 293 293 293 293 293 294 294 295 296 296 296 296 296 296 296 296 296 296 295 295 294 294 294 293 293 292 292 292 292 292 292 292 292 291 290 289 289 288 288 288 288 289 289 289 290 290 290 290 290 290 290 290 290 290
295 294 293 293 292 292 292 292 293 293 293 292 292 292 292 292 293 293 293 292 292 293 294 293 293 293 293 293 293 293 293 293 293 293 293 293 293 293 294 294 295 295 295 296 296 296 296 296 295 295 294 293 293 293 292 292 292 292 292 292 291 291 291 291 290 288 288 288 288 288 288 288 288 289 289 289 290 290 290 290 290 289 289 290 290
295 294 294 294 292 292 292 292 292 293 293 293 292 292 292 292 293 293 293 292 293 293 293 293 293 294 294 293 293 293 293 294 293 293 293 293 293 294 294 294 294 294 295 295 295 295 295 295 294 293 293 292 292 291 291 291 290 290 290 290 290 290 289 289 288 287 287 287 288 288 288 288 288 289 289 289 289 289 289 289 289 289 289 290 290
295 294 295 295 293 292 292 292 292 292 292 293 292 292 292 292 293 292 292 293 293 293 293 293 293 293 293 294 293 293 293 293 293 293 293 293 293 293 293 293 294 294 294 294 294 294 294 293 293 292 292 291 290 290 289 289 289 288 288 288 288 287 287 287 287 287 287 287 287 288 288 288 288 288 289 289 289 289 289 289 289 289 290 289 290
294 294 295 295 294 292 291 291 292 292 292 292 292 292 292 292 292 292 292 293 293 293 293 292 292 292 293 293 293 293 292 292 292 293 292 292 292 292 292 293 293 293 293 293 293 293 292 292 291 290 290 289 289 289 288 288 287 287 287 287 286 286 286 286 287 287 287 287 288 288 288 288 288 289 289 289 289 289 289 289 289 289 290 290 290
Wind_Speed
20 20 20 20 19 18 17 16 16 16 13 12 12 13 12 11 10 8 7 6 4 3 3 4 5 5 4 4 5 7 6 5 6 6 6 6 6 6 6 4 4 4 4 3 3 3 2 3 7 10 12 14 13 13 14 13 12 11 10 7 4 7 11 12 12 13 13 13 12 12 11 10 9 9 10 10 10 9 8 8 7 7 6 4 2
20 20 20 19 18 18 16 15 16 16 13 13 14 14 13 11 9 8 6 4 3 3 3 4 4 4 3 4 5 6 5 5 6 8 7 8 8 8 7 6 5 5 4 4 4 4 4 2 5 8 11 13 13 13 13 13 12 10 9 8 7 9 11 11 11 10 10 10 10 11 11 10 10 10 10 11 11 10 10 10 9 8 7 6 6
20 20 20 19 18 18 16 16 17 16 13 14 16 15 13 11 9 7 6 4 3 3 4 3 4 4 3 4 5 5 4 4 6 8 8 8 8 8 8 7 7 6 6 5 5 5 4 2 4 8 11 13 13 13 12 12 10 9 9 9 9 10 10 10 9 8 8 7 8 9 10 10 11 11 11 12 12 12 12 12 12 10 8 8 8
20 21 21 20 19 19 17 17 18 17 14 16 17 15 13 11 10 8 6 5 4 4 4 4 4 4 4 4 4 4 3 3 6 9 9 8 8 8 9 8 8 7 7 6 5 4 4 3 4 8 11 12 13 13 12 11 10 9 9 9 8 9 9 9 8 8 8 7 7 9 10 11 11 11 12 13 13 13 13 14 14 13 11 11 11
21 20 21 20 20 19 18 18 20 18 16 17 16 14 13 12 11 9 8 7 6 5 5 5 5 4 4 5 5 4 3 3 5 8 8 8 7 7 8 8 8 8 7 6 5 5 5 4 6 9 11 12 12 12 12 11 9 9 8 7 7 7 8 8 9 10 9 9 9 9 10 11 12 13 13 14 14 15 15 15 15 15 14 14 14
19 19 20 21 20 20 19 20 21 18 16 17 16 14 13 12 11 10 10 9 9 9 9 9 9 8 7 6 6 5 4 5 6 6 7 7 7 6 6 7 8 8 7 6 5 6 5 5 6 9 11 11 11 11 10 9 8 7 6 6 6 7 8 10 11 12 12 12 12 12 11 12 13 14 15 16 16 17 16 16 17 17 17 17 17
19 18 19 20 20 20 19 18 17 16 16 17 17 16 14 13 12 12 13 13 13 13 12 11 11 11 11 10 9 8 6 6 6 5 6 6 6 5 5 6 7 8 8 7 5 6 6 6 7 9 10 10 10 9 8 7 6 6 5 6 7 9 10 12 13 14 15 15 15 15 15 14 14 16 17 18 18 19 19 19 20 20 20 20 20
20 19 19 19 19 18 18 18 18 19 19 19 19 17 16 14 12 13 14 14 14 13 11 11 11 10 11 11 10 9 8 7 6 4 4 4 4 4 4 5 7 8 8 8 6 6 7 8 7 8 9 9 9 9 8 7 5 5 6 7 8 8 10 11 13 15 17 18 18 18 17 17 17 18 19 20 22 22 22 22 23 23 22 22 22
21 21 20 18 18 18 18 19 21 21 21 21 20 18 16 15 14 14 14 13 13 11 9 8 9 9 9 9 8 7 6 5 6 5 4 4 3 3 3 3 5 7 8 8 6 6 7 9 9 9 9 9 8 8 8 8 7 7 7 7 6 6 7 8 9 10 12 14 17 17 18 19 19 20 21 22 23 24 24 23 24 24 24 24 24
20 20 20 18 18 19 20 21 21 21 22 23 20 17 16 14 11 10 10 9 8 9 8 7 8 9 9 8 7 6 5 5 5 5 5 5 4 4 4 3 3 6 7 7 6 6 7 8 10 10 10 10 9 9 9 9 9 9 8 8 7 6 6 6 7 8 9 11 13 15 16 19 20 20 21 21 23 24 24 23 25 25 25 25 26
18 18 17 17 16 17 18 18 18 19 21 20 14 9 9 10 10 11 10 10 10 10 10 8 8 8 8 7 6 5 5 4 4 4 4 5 5 5 5 5 4 5 6 5 5 6 6 7 8 9 10 10 10 10 10 10 10 10 9 9 9 8 8 8 9 9 10 12 13 15 16 19 20 21 21 22 22 24 24 24 26 26 26 27 28
17 16 16 15 13 12 12 14 15 14 15 14 11 9 10 11 11 11 10 11 11 11 11 10 8 8 8 7 6 5 5 4 4 4 3 4 4 5 5 6 6 6 6 6 5 6 6 7 7 8 9 9 10 10 11 11 11 11 11 11 11 12 12 12 12 13 13 14 16 17 18 19 21 21 21 21 22 23 24 26 27 28 28 29 29
16 15 14 14 12 10 10 12 14 14 13 13 12 12 13 12 12 12 12 11 11 11 11 10 9 8 8 7 7 6 6 5 5 4 3 3 3 4 4 5 6 6 6 7 7 7 7 8 8 9 9 9 10 11 11 12 13 13 13 13 13 14 14 15 15 15 16 17 18 19 19 20 21 21 20 20 21 22 24 27 28 29 30 31 31
16 14 12 11 10 9 9 9 11 13 13 13 13 14 14 14 13 13 12 11 10 10 10 9 9 8 8 8 7 7 7 7 6 6 5 5 5 5 5 5 6 7 7 7 8 8 8 9 9 10 10 10 11 11 12 12 13 13 14 14 14 14 14 15 15 15 15 17 18 19 19 19 21 21 21 20 21 23 25 26 28 29 31 32 32
17 15 14 12 11 11 10 9 10 10 10 9 9 11 12 12 12 12 11 10 10 10 9 9 8 8 8 8 8 8 8 8 7 7 7 7 7 7 7 8 8 8 9 10 10 11 11 11 12 12 12 12 13 13 14 15 15 15 15 15 15 15 15 15 15 15 15 16 17 18 18 19 20 21 22 23 24 24 25 26 27 28 30 32 33
20 19 18 17 16 14 13 12 11 10 8 7 7 7 8 8 9 9 9 8 8 8 8 7 7 7 8 8 8 9 9 9 9 9 9 9 9 9 10 10 10 11 12 12 13 13 13 14 14 15 15 15 15 16 17 18 18 18 19 18 19 18 18 18 18 18 18 18 19 19 20 20 20 21 22 24 26 27 26 26 27 28 30 31 31
23 22 21 20 18 17 16 15 14 13 11 9 8 8 7 7 6 7 6 6 5 5 6 6 6 7 7 8 9 10 10 11 11 11 12 12 12 13 13 14 14 14 15 15 16 16 16 17 17 18 18 18 19 20 20 21 21 21 22 22 22 22 22 22 22 22 22 22 23 22 22 23 23 23 24 24 26 27 28 28 28 28 28 28 29
23 22 21 20 18 17 15 15 15 14 13 12 11 9 8 7 7 6 5 4 4 4 4 4 5 6 6 7 8 9 10 11 11 12 12 12 13 14 14 15 16 16 17 17 18 18 19 19 20 20 21 21 22 23 23 24 24 24 24 24 25 25 25 25 26 26 26 26 25 25 25 25 25 26 26 25 26 26 27 27 28 28 26 26 29
19 18 17 16 15 14 13 12 12 11 10 10 10 8 7 7 6 5 4 4 3 3 3 4 4 5 6 7 8 9 10 11 12 12 13 13 13 14 14 15 16 17 17 18 18 18 19 20 20 21 22 22 23 24 24 25 25 26 26 27 27 28 27 27 27 26 26 26 26 25 26 26 26 26 26 25 25 26 26 26 26 27 26 27 30
14 13 12 11 10 9 9 8 7 7 6 5 4 4 3 1 1 1 2 3 4 5 5 6 7 8 9 10 11 12 13 14 15 15 16 17 17 17 18 19 19 20 20 20 21 21 20 21 21 21 22 23 23 24 25 25 25 26 27 28 29 29 28 27 27 26 25 26 26 25 25 24 25 26 25 25 25 26 26 24 23 25 26 27 29
11 9 8 7 6 6 5 5 4 3 2 1 1 1 2 4 5 5 6 6 7 7 8 9 10 11 12 13 14 15 16 16 17 18 19 20 21 21 23 23 24 25 25 25 25 26 25 25 25 24 24 24 24 25 25 26 26 27 28 28 28 28 28 28 28 26 26 25 25 25 25 24 25 25 25 25 25 24 24 22 22 24 27 27 28
9 9 7 7 6 6 5 5 5 4 4 3 4 4 5 6 8 8 9 10 10 10 10 11 11 12 13 14 15 16 17 18 19 20 21 22 22 23 24 25 27 27 28 28 28 28 29 29 28 28 28 28 27 27 28 28 29 29 29 28 28 28 28 27 26 26 25 25 25 25 24 24 25 24 23 24 24 23 22 22 23 25 28 29 29
9 8 8 7 6 5 4 4 3 3 3 4 4 5 6 7 8 9 10 11 12 12 13 13 13 14 14 15 16 17 18 19 20 22 23 24 25 25 25 26 27 28 29 29 30 30 31 31 31 31 31 30 30 29 29 30 31 31 30 29 29 30 30 29 28 27 26 26 26 25 25 25 25 24 23 22 22 22 22 25 27 28 29 30 29
9 8 8 7 7 5 5 4 3 3 4 4 5 5 6 7 8 9 10 11 12 13 14 14 14 15 15 16 16 17 18 18 19 21 22 23 24 26 26 27 27 28 29 30 30 31 32 32 33 33 33 33 33 32 31 30 31 31 30 30 31 31 32 31 30 28 27 27 27 26 26 25 25 25 23 22 21 22 24 28 30 30 29 28 25
10 9 8 8 8 7 7 6 6 6 6 6 6 7 7 8 9 9 10 11 12 12 13 14 14 15 15 15 16 17 17 17 18 18 19 20 22 23 25 26 27 28 29 29 30 31 31 32 32 32 32 32 32 32 32 31 31 30 30 30 31 32 33 33 32 30 30 29 28 27 26 25 25 24 23 22 23 25 28 30 31 29 26 24 21
9 9 8 8 8 8 8 8 8 8 8 8 9 9 9 9 9 9 9 10 11 11 12 13 14 14 15 15 16 16 17 17 18 18 19 20 21 21 22 24 25 26 28 28 29 30 31 31 31 30 30 30 30 30 30 30 30 30 29 29 29 31 32 33 33 32 31 30 29 28 27 25 24 23 23 25 28 29 30 31 29 26 23 20 18
10 9 9 8 8 8 7 7 8 8 8 8 8 8 8 8 8 8 8 9 9 10 11 11 12 13 13 14 14 14 15 15 17 18 18 19 20 21 21 22 23 24 26 27 28 29 30 30 29 29 28 27 27 27 27 26 26 26 26 26 26 27 30 31 32 31 30 29 29 28 26 25 24 24 25 28 30 31 30 29 26 23 21 18 15
10 9 9 8 8 8 7 8 8 7 7 7 7 7 7 7 7 7 7 7 8 8 9 10 11 12 13 14 14 14 14 14 14 15 16 16 18 19 20 21 22 22 23 25 27 28 28 28 27 27 26 25 24 23 22 22 21 21 22 23 24 24 26 28 29 30 30 29 29 28 26 25 24 24 26 29 30 29 28 25 23 22 20 17 14
10 10 9 8 8 7 7 7 6 6 6 7 7 7 7 7 7 8 8 9 9 10 11 12 12 13 14 16 16 17 16 15 14 14 13 14 15 17 18 19 19 20 20 22 25 27 27 26 26 25 24 23 22 21 20 19 19 19 21 23 24 24 25 26 28 29 29 29 29 28 27 25 23 24 27 29 29 27 26 25 23 21 19 17 16
10 9 9 8 8 7 7 7 6 7 7 7 7 8 8 7 7 8 9 10 11 11 11 11 12 14 15 16 16 17 17 16 15 14 13 13 13 14 15 16 17 18 18 20 22 24 24 24 24 23 23 22 22 21 19 18 18 19 20 22 22 22 22 22 23 24 24 25 25 25 24 23 23 24 27 29 29 28 27 25 23 21 19 17 16
10 9 9 8 7 7 7 7 7 7 8 7 7 8 8 8 8 8 9 9 10 9 9 10 11 13 15 15 15 16 17 17 17 15 14 13 12 12 13 13 14 15 16 18 19 19 19 20 20 19 20 21 21 21 20 20 19 18 18 18 18 18 18 18 19 20 20 20 20 20 20 21 23 25 27 30 32 31 28 25 22 19 17 15 14
11 10 10 8 7 7 7 8 8 8 9 8 8 7 7 9 11 12 12 11 9 8 8 8 9 11 13 14 16 17 19 20 20 18 16 14 12 11 10 11 11 12 13 15 16 15 15 17 18 17 18 19 20 19 20 19 18 17 15 14 14 15 16 17 18 17 16 16 17 17 19 21 23 25 28 31 31 28 25 23 21 18 15 13 12
11 10 10 9 7 7 8 8 8 8 9 9 9 9 9 10 12 14 14 12 10 9 9 9 10 11 13 15 17 19 21 22 22 21 19 17 14 11 9 8 9 11 11 12 14 14 14 16 18 18 18 18 17 17 17 16 15 15 14 14 13 14 15 15 15 14 14 14 15 17 20 22 25 29 32 31 27 23 21 19 17 15 13 12 11
11 10 10 9 7 7 7 8 8 8 8 9 10 10 11 11 12 12 12 11 10 10 11 11 12 13 14 16 17 19 21 22 21 20 19 18 16 14 11 9 9 10 11 12 14 15 15 16 17 16 16 16 16 16 17 16 16 17 17 16 16 15 15 14 13 13 14 16 17 19 22 25 30 32 30 25 21 19 17 16 14 12 11 11 11
11 11 11 11 8 5 5 6 7 7 7 8 9 10 11 12 12 13 13 12 11 11 11 11 12 13 14 16 17 17 19 20 19 19 19 18 17 15 14 12 11 11 12 13 14 15 17 17 16 15 15 15 16 17 18 17 16 16 16 16 16 15 14 13 13 14 15 17 18 19 22 25 27 25 21 18 16 15 14 13 12 11 11 11 10
11 12 12 11 9 5 3 4 5 5 6 7 8 10 11 12 12 13 13 13 12 12 12 11 11 12 13 14 15 16 17 18 19 19 19 19 18 17 15 14 13 13 14 15 15 16 16 15 14 13 13 14 16 17 18 17 15 14 14 14 14 14 13 13 14 15 16 17 17 19 21 23 22 19 17 15 13 12 11 11 11 10 10 10 8
10 11 11 10 8 5 2 2 2 3 4 5 6 8 9 11 12 13 13 13 13 13 13 12 12 12 12 12 13 14 15 16 17 18 18 18 18 17 15 13 13 13 13 14 15 14 14 13 12 10 11 12 14 15 17 17 16 14 13 12 13 13 14 13 12 12 13 16 18 19 21 20 19 16 14 11 10 10 9 9 9 9 9 9 7
8 9 10 9 8 5 3 0 1 1 2 3 4 5 8 10 12 13 13 13 13 13 13 14 14 14 14 14 13 13 13 13 14 15 15 15 16 17 17 15 14 13 12 12 12 12 11 11 9 9 10 11 12 12 12 12 12 11 11 10 11 10 9 8 9 11 15 19 21 21 20 20 18 15 13 11 10 10 9 9 9 9 8 7 5
7 8 9 9 9 7 5 3 1 1 1 2 3 4 6 9 12 13 13 13 13 13 13 13 14 15 15 15 14 14 13 12 13 13 12 12 14 15 14 14 14 14 13 12 11 10 9 9 9 10 11 12 12 10 7 6 6 6 6 6 6 8 10 12 15 17 19 21 21 20 18 17 16 14 13 11 9 8 8 9 9 8 6 5 5
7 8 9 10 10 10 8 6 4 3 3 4 3 4 6 9 11 13 14 13 13 11 11 12 13 13 13 14 14 14 14 13 13 12 10 11 12 11 11 12 14 15 14 13 11 8 8 9 11 12 12 12 11 9 5 1 1 2 4 8 12 14 15 15 16 17 17 17 16 16 16 16 15 13 11 10 8 8 8 9 9 7 6 5 4
7 9 9 10 10 11 10 9 6 5 5 5 4 5 6 7 9 11 12 13 12 9 8 11 12 11 11 12 12 13 13 13 12 11 11 10 10 10 10 12 14 15 16 16 14 11 10 11 13 13 13 13 11 10 8 6 3 5 9 14 16 16 16 16 16 17 17 16 16 16 15 14 13 11 9 8 9 8 8 8 7 6 5 4 4
7 8 10 10 9 10 11 10 8 7 6 5 5 4 4 5 7 8 10 12 10 7 7 9 9 8 9 10 10 10 11 11 11 11 12 11 11 11 11 12 13 15 17 18 17 15 15 15 14 13 13 13 12 12 11 8 7 9 12 14 15 15 16 16 17 18 18 17 16 15 14 12 10 9 8 7 8 7 7 7 6 5 5 5 5
6 8 9 9 9 10 10 10 9 8 5 4 3 2 2 3 5 6 8 10 8 6 7 7 7 7 8 10 9 9 10 10 10 10 11 11 11 11 11 11 13 15 16 17 17 17 15 14 14 13 13 11 10 11 11 11 12 12 13 14 16 17 17 17 17 16 15 14 14 14 12 11 10 8 7 6 6 7 7 6 5 5 5 4 4
5 7 9 9 9 10 11 11 10 8 4 2 2 2 2 3 4 5 6 7 7 7 7 7 7 8 9 11 11 11 11 10 9 9 9 10 10 9 9 10 11 13 14 16 17 16 14 12 13 15 14 14 14 14 15 15 14 15 16 17 18 18 18 17 16 15 14 13 12 12 11 9 9 8 7 6 7 8 8 6 5 5 5 4 3
3 6 9 9 8 9 11 11 10 8 5 4 3 2 3 4 5 5 6 7 7 7 7 8 8 8 11 14 15 15 15 14 14 13 12 11 10 9 8 8 9 10 12 14 15 15 14 14 16 16 17 17 17 17 17 17 16 17 18 18 17 16 16 15 14 14 13 12 10 9 9 8 8 7 7 8 8 8 6 5 5 6 5 4 3
2 5 8 8 7 8 10 11 10 9 7 5 5 5 7 8 7 6 7 7 7 7 8 8 7 9 12 16 17 17 17 18 18 18 18 17 16 14 11 8 8 9 11 13 15 15 15 16 17 17 17 17 16 15 15 15 15 16 16 15 14 13 12 11 11 10 11 10 9 7 6 7 6 6 7 8 7 6 5 5 5 5 5 4 4
2 4 6 7 7 7 8 10 11 10 9 8 8 9 9 9 7 7 7 7 7 8 8 7 7 11 14 15 16 16 17 18 19 19 20 20 20 20 17 14 12 12 13 15 16 15 15 15 16 16 16 15 14 14 14 13 13 13 12 12 11 10 9 8 8 8 8 8 8 7 6 6 6 6 7 8 7 6 5 5 5 4 4 4 5
2 2 5 7 8 7 7 9 10 10 10 9 9 10 10 8 7 7 6 6 7 7 7 7 9 12 13 13 13 14 15 16 16 17 18 18 19 20 20 19 17 15 14 14 14 14 13 13 13 14 14 14 14 13 13 12 11 10 8 8 7 7 6 6 6 5 5 7 7 7 6 6 6 7 8 8 8 6 5 4 4 4 4 4 4
2 1 3 7 8 7 6 7 9 10 10 9 9 10 9 7 6 6 5 5 5 5 5 6 9 11 11 11 11 11 12 12 12 13 13 14 14 14 15 16 16 14 13 11 11 11 11 11 11 12 13 12 11 10 10 9 7 6 5 4 4 4 3 3 4 4 5 6 7 7 7 7 7 8 9 9 8 6 4 3 4 4 4 4 3
3 1 2 5 8 8 6 5 7 9 10 9 8 8 7 5 4 4 4 3 4 4 5 5 7 8 9 9 9 9 10 11 11 11 11 12 11 10 10 10 9 9 9 9 10 10 10 10 10 11 10 9 9 8 8 7 6 5 4 3 3 3 3 4 4 5 6 6 7 7 7 8 8 9 9 9 8 6 4 4 5 5 4 4 3
5 2 1 3 6 8 7 4 4 6 8 8 7 6 5 4 3 2 2 3 4 5 5 4 5 6 6 6 6 6 7 8 9 10 10 10 10 9 8 7 7 7 7 8 8 9 9 9 10 10 9 9 8 9 9 8 8 7 6 6 5 5 5 5 6 6 7 7 8 8 8 8 9 9 9 9 8 6 5 5 5 4 3 3 3
Wind_Direction
170 171 173 178 177 176 175 172 170 168 166 164 162 159 153 144 141 140 135 131 119 111 116 127 143 164 173 165 159 159 152 150 158 155 148 152 155 161 159 147 142 132 112 88 67 56 67 176 193 193 188 181 173 170 166 160 165 175 185 193 167 145 160 162 156 159 164 168 175 181 182 183 190 196 199 202 206 212 218 220 227 231 226 230 270
172 176 177 178 179 179 178 176 174 174 172 167 164 162 155 146 143 140 139 137 124 121 128 132 142 156 163 157 159 163 157 150 159 157 152 151 152 156 156 146 143 135 111 91 75 56 50 100 171 180 181 177 169 168 167 161 162 170 180 188 178 160 159 163 165 168 173 176 180 187 190 188 195 204 205 207 211 216 221 226 235 240 234 241 265
172 176 178 179 182 181 181 181 179 179 175 167 164 161 153 147 145 142 141 137 124 124 133 138 146 153 156 150 154 163 160 162 171 167 161 157 155 156 157 154 149 136 116 101 86 58 46 74 150 166 168 166 165 167 167 164 165 169 178 185 186 180 176 177 180 184 195 198 193 198 202 199 202 208 208 208 211 216 219 226 237 245 245 251 264
172 173 178 182 183 182 182 183 184 181 172 165 162 158 154 152 148 143 141 134 122 124 139 146 148 154 152 148 153 162 164 182 186 178 172 166 161 159 158 159 157 144 127 116 111 86 59 80 144 157 160 161 162 164 163 162 165 170 176 182 188 195 199 203 206 208 215 219 213 211 215 215 214 214 212 212 214 219 222 228 237 246 251 256 264
171 173 178 182 183 181 181 185 187 180 168 164 164 161 159 156 149 142 137 131 125 123 129 133 133 138 144 150 157 157 156 172 180 181 182 176 169 165 162 164 163 156 146 140 136 121 92 97 141 154 158 160 160 159 158 158 163 170 177 186 199 209 219 229 234 235 234 235 234 230 227 225 225 225 221 219 219 222 227 232 238 246 253 258 264
166 172 176 179 179 179 183 189 187 176 166 167 169 166 163 158 149 142 136 130 125 122 121 118 114 111 114 126 137 139 142 150 151 162 176 183 183 178 172 173 173 169 168 166 159 146 125 114 140 154 158 160 158 156 159 164 171 177 184 199 217 227 235 243 247 251 249 246 246 247 244 240 239 236 231 227 226 227 230 233 238 246 252 257 262
161 170 174 175 176 178 183 188 187 180 176 175 173 170 164 156 148 141 135 129 126 125 123 119 114 108 103 101 104 106 108 121 132 144 163 178 190 193 192 193 189 187 188 189 185 173 157 141 145 156 161 163 163 163 164 169 177 191 211 229 239 244 249 253 256 259 259 255 251 248 248 249 247 243 239 235 231 231 233 235 239 244 249 254 259
160 167 171 172 173 176 180 183 185 186 184 179 176 171 162 156 151 148 143 136 131 131 130 128 126 120 113 105 100 97 95 98 106 120 148 170 180 186 192 196 198 200 200 201 207 201 185 172 165 164 165 165 168 170 174 183 198 222 240 248 253 255 257 259 260 260 261 259 255 251 250 250 249 245 240 235 233 235 239 240 242 247 251 255 259
160 165 171 173 173 174 177 179 181 181 180 178 174 169 163 158 152 150 149 145 141 141 145 149 148 140 130 123 120 121 120 118 114 112 123 150 167 174 174 176 187 197 200 202 206 204 196 192 191 188 186 185 189 193 200 210 217 225 233 240 250 260 264 265 265 262 260 257 255 253 250 248 249 247 243 242 242 244 247 248 247 251 255 256 258
163 167 170 172 172 172 173 175 176 177 180 178 172 168 168 168 168 172 180 189 181 165 167 177 171 161 152 143 144 150 153 151 141 126 121 131 149 166 173 164 162 176 184 188 191 190 190 198 206 210 213 215 219 223 229 233 233 229 227 231 240 253 262 269 273 273 271 267 262 259 255 253 255 256 257 257 253 250 253 252 250 253 256 254 256
163 166 167 168 170 171 170 170 172 176 180 182 183 192 200 207 223 230 224 220 208 188 187 194 186 177 171 166 167 172 171 165 158 152 142 136 139 151 165 172 168 172 178 182 191 195 195 201 210 218 224 230 234 237 239 241 242 240 239 243 250 257 262 265 269 270 271 270 269 268 266 265 267 268 267 265 260 257 258 256 255 258 258 256 257
156 158 159 163 168 175 178 178 183 191 195 199 218 234 223 211 211 209 199 193 189 190 198 202 195 190 190 190 194 197 197 195 184 175 170 162 156 154 161 171 178 187 195 202 209 212 212 215 220 224 229 234 239 244 246 248 250 251 254 259 262 265 267 268 270 271 270 269 269 269 269 270 272 272 270 269 268 265 262 258 258 260 261 261 261
152 154 155 160 168 178 185 185 190 199 201 202 206 203 195 189 184 182 181 182 186 194 201 201 200 203 205 208 215 218 220 223 222 220 218 209 200 192 185 186 189 194 201 206 211 215 221 227 231 234 238 241 244 248 253 256 258 260 262 264 265 266 267 269 270 270 269 267 266 266 267 267 268 269 269 271 273 271 267 263 263 263 263 262 260
142 142 141 149 162 168 171 176 183 188 188 189 190 187 186 186 184 185 187 188 191 199 204 206 207 209 214 220 226 231 233 233 234 238 242 246 247 243 236 231 225 222 223 223 225 227 229 231 234 237 240 242 245 249 253 256 259 261 261 261 262 263 264 267 269 269 268 267 267 268 270 268 268 268 267 266 268 270 271 271 271 270 268 264 260
127 126 126 130 135 141 149 160 166 167 169 176 183 186 187 185 184 190 199 203 204 206 211 216 219 220 224 228 232 236 239 240 240 243 248 251 255 257 256 256 254 251 250 249 248 248 247 247 247 247 247 247 248 251 254 257 259 261 261 261 263 264 264 266 269 271 271 272 273 273 273 271 270 270 269 267 267 269 273 276 276 274 271 266 262
123 126 126 124 122 122 128 137 141 142 147 158 168 174 179 182 183 191 206 214 213 212 215 223 232 237 239 241 244 246 249 252 255 258 262 265 267 268 268 267 266 265 264 264 264 264 264 264 262 262 261 261 261 262 262 262 264 264 265 266 267 268 267 268 270 271 271 273 274 274 275 275 275 274 272 273 272 270 271 271 270 267 263 259 258
115 118 118 117 116 114 116 121 123 127 136 144 149 153 159 170 176 181 198 211 212 214 219 225 234 240 244 248 251 253 254 257 261 265 268 270 271 273 273 272 271 269 268 269 270 270 271 271 271 271 271 271 270 270 269 269 269 269 270 271 271 270 269 269 269 269 269 270 270 272 274 277 278 277 277 278 278 276 272 269 267 266 261 258 259
107 108 109 110 112 114 115 118 118 121 127 131 132 135 138 143 151 157 169 184 191 199 206 214 224 232 241 248 252 257 261 264 266 268 269 271 271 272 272 272 272 272 271 272 273 274 275 275 276 275 275 273 272 271 270 271 271 271 271 271 270 270 270 269 268 268 268 269 269 270 270 271 272 274 276 278 279 279 277 273 273 273 267 263 264
100 100 99 100 104 108 111 116 120 122 121 118 117 123 128 131 140 152 168 187 203 218 227 236 243 247 253 259 262 265 269 271 274 275 276 276 275 274 274 274 273 273 273 274 275 276 277 278 278 278 278 276 275 273 273 273 272 272 271 269 268 269 269 268 267 266 266 267 268 268 267 266 267 269 271 273 273 275 276 274 274 272 265 260 259
89 90 88 86 86 87 90 98 110 116 117 114 110 117 122 106 98 228 243 246 251 260 265 268 271 272 273 274 275 276 277 278 279 280 281 281 281 281 280 279 278 277 276 275 275 274 274 274 274 275 275 275 274 274 273 273 273 272 271 270 271 271 270 267 265 265 265 265 266 266 265 264 264 265 266 268 268 270 272 271 270 268 260 252 250
70 71 73 70 62 55 53 52 53 58 64 54 23 344 304 308 311 309 306 300 293 289 286 284 283 283 283 284 284 285 285 285 285 284 284 283 284 284 283 283 282 281 280 279 277 276 275 273 271 270 270 270 270 270 270 270 269 267 267 268 269 268 265 262 261 261 261 262 262 263 262 262 261 261 263 265 266 267 267 267 266 264 256 247 243
52 49 49 48 43 36 29 23 15 6 354 342 329 316 304 301 303 304 305 305 303 301 298 295 293 291 290 290 290 290 291 291 291 291 290 288 287 286 285 285 285 284 283 282 281 280 279 277 275 273 271 270 269 269 269 269 268 267 268 268 268 267 265 262 261 261 261 262 263 264 264 265 265 263 261 262 264 265 264 261 259 257 253 247 244
55 51 51 53 53 49 41 32 20 1 348 335 323 316 311 305 302 301 300 300 301 301 300 299 297 296 295 294 293 293 293 293 294 293 293 293 291 289 288 286 286 286 285 284 283 283 282 281 280 279 277 275 273 271 269 268 267 268 268 267 267 267 266 265 263 263 264 264 265 267 268 269 269 268 266 265 265 263 260 256 253 250 248 246 243
57 54 54 55 54 51 47 37 21 5 352 341 331 323 317 310 306 304 302 301 301 300 300 299 297 296 296 294 293 293 292 291 291 291 291 291 291 290 288 287 285 284 284 283 283 282 281 281 280 280 279 278 276 275 272 270 268 267 265 263 262 262 262 262 263 263 263 263 265 267 269 270 269 269 270 269 265 258 253 251 247 244 242 241 239
54 48 44 42 36 31 26 17 8 1 353 346 341 332 325 320 316 311 309 308 306 305 305 304 303 302 301 300 299 298 297 296 294 292 290 289 289 288 288 288 287 285 284 283 283 282 281 280 279 279 279 278 277 276 275 274 272 270 266 263 260 258 258 260 260 260 260 262 265 267 268 267 266 266 266 261 254 249 246 242 238 235 234 232 230
53 47 42 36 30 25 19 9 4 359 352 346 342 338 334 331 327 325 323 319 316 314 312 311 310 309 309 309 308 307 305 304 301 297 293 290 288 287 287 288 288 287 286 285 284 282 281 280 280 280 279 279 279 278 277 276 275 274 271 267 263 259 257 258 258 257 257 259 262 264 264 263 262 261 259 252 245 241 239 235 230 227 226 224 223
44 40 38 33 28 25 18 11 6 0 352 346 342 341 340 336 332 330 325 318 314 311 309 308 310 312 314 314 312 312 312 309 304 300 296 292 289 287 285 284 283 283 285 285 284 282 281 280 279 278 278 278 278 278 279 278 277 276 274 270 266 261 259 259 260 258 257 257 257 257 258 259 258 256 254 250 244 238 234 230 225 221 219 218 221
40 36 34 30 25 20 14 10 9 5 359 355 356 0 359 350 342 335 326 321 319 317 321 325 328 331 333 331 330 332 332 327 319 311 304 298 292 287 283 281 280 279 279 279 278 278 279 279 279 278 279 279 279 279 280 280 277 274 271 269 265 261 258 257 259 260 260 259 259 257 256 257 256 254 251 248 241 232 225 220 216 215 215 214 219
38 35 32 27 22 19 16 17 23 28 26 21 21 26 26 18 9 358 347 342 341 341 346 348 347 349 352 350 348 349 348 345 339 330 319 308 297 290 285 283 282 281 280 278 276 276 276 276 277 280 282 282 282 281 280 278 275 271 266 263 260 257 254 254 257 259 259 258 259 259 259 257 254 249 244 237 228 219 213 210 209 211 212 214 221
38 35 32 28 25 26 30 37 48 59 64 61 55 51 46 36 22 8 356 350 347 349 354 357 356 357 359 359 357 354 352 350 346 339 332 324 312 302 296 293 291 289 286 281 278 278 279 278 279 283 286 285 283 281 280 278 277 275 269 262 257 256 257 259 259 259 260 259 259 259 259 256 250 243 235 225 213 206 205 206 208 211 212 216 225
41 41 41 39 40 47 58 69 73 74 80 87 86 74 61 44 28 14 4 356 354 358 5 8 6 2 2 6 7 3 358 353 348 342 336 330 325 318 312 307 301 295 290 285 283 286 290 291 290 291 291 289 285 283 281 281 282 281 274 263 256 254 257 259 259 260 262 264 264 263 259 253 248 239 227 213 204 201 202 203 206 211 216 222 229
45 47 48 50 57 72 84 91 89 81 78 81 82 74 58 44 36 30 23 15 14 24 30 25 21 17 14 13 11 8 4 358 352 345 337 329 326 325 323 316 308 301 296 292 293 297 301 301 300 298 294 291 290 288 287 288 289 286 278 266 255 251 253 255 258 260 263 267 269 266 259 251 242 229 214 204 201 201 201 201 205 210 218 227 232
45 47 48 51 65 86 92 89 84 78 72 66 62 56 47 40 39 41 43 41 40 45 45 36 30 26 20 14 10 6 4 359 354 347 340 335 332 330 328 321 309 303 301 299 302 306 307 304 303 301 296 295 295 294 293 292 289 284 279 273 265 261 258 257 258 261 267 269 265 258 251 238 222 208 200 198 199 201 200 203 207 212 219 228 232
42 41 41 45 58 81 88 79 73 69 63 56 51 45 41 37 34 36 43 49 50 49 44 33 24 17 12 8 6 5 3 1 358 353 347 342 336 333 331 326 312 306 304 303 303 306 308 307 307 305 301 298 296 294 291 289 285 281 278 275 272 270 269 267 263 262 264 265 260 251 239 221 204 196 194 193 193 196 200 205 211 216 223 230 232
37 35 35 37 44 63 81 78 73 68 58 51 45 38 34 33 30 27 27 29 31 34 33 25 16 8 3 359 357 359 0 0 359 357 352 345 338 330 325 323 317 311 308 305 304 304 306 309 312 312 308 303 300 297 295 292 287 283 279 274 270 269 269 268 266 265 262 259 254 242 223 206 194 191 190 188 190 196 203 209 215 221 226 230 232
33 33 31 31 35 47 73 84 79 71 59 49 41 33 28 25 23 21 19 17 15 14 14 13 9 2 355 350 347 348 352 354 355 355 354 352 347 337 326 317 312 308 305 304 304 303 305 307 310 311 308 305 302 299 296 291 284 278 275 272 268 267 266 263 263 265 257 244 230 213 198 188 182 181 180 182 191 201 208 214 220 224 227 230 232
31 32 27 24 27 32 51 100 102 81 62 51 38 28 23 18 15 12 11 12 11 7 3 2 1 357 353 348 343 343 346 350 353 355 356 357 357 354 350 341 330 322 315 308 305 304 304 306 308 311 313 312 307 300 293 287 280 270 268 269 269 268 267 260 255 250 234 211 193 183 176 168 165 166 169 176 191 203 211 217 221 225 235 238 230
27 28 25 21 18 17 16 24 175 128 52 37 27 19 13 10 7 4 3 5 6 4 2 1 360 358 357 356 353 349 346 349 354 357 358 359 2 7 11 11 7 2 355 345 337 332 325 319 321 333 340 337 326 311 295 281 267 252 252 261 264 257 244 221 201 192 184 174 165 161 159 158 159 164 168 174 188 201 210 220 226 232 237 231 212
18 20 20 16 12 9 5 349 304 266 304 329 344 355 358 359 359 356 354 357 0 1 2 4 3 2 3 2 360 357 355 354 357 2 7 13 15 15 15 18 22 23 20 13 6 358 346 341 348 356 357 355 347 331 303 269 243 235 240 241 221 191 172 164 161 159 158 156 154 154 156 159 162 165 166 170 183 199 212 224 229 225 215 202 191
9 9 10 9 6 4 0 347 323 293 290 302 314 326 338 351 354 349 348 356 2 1 0 5 7 8 9 6 3 3 3 2 1 4 13 24 26 23 21 25 27 25 20 14 5 354 352 1 9 11 11 10 6 359 350 352 161 196 192 176 162 150 142 138 138 140 142 144 146 147 149 150 151 151 154 166 187 207 217 220 213 195 181 181 178
359 1 3 2 1 1 360 352 333 301 284 284 293 307 326 348 352 346 348 1 8 5 1 6 12 17 17 12 8 6 6 6 7 9 14 24 28 27 27 29 28 25 21 17 12 12 21 24 23 26 31 33 34 38 44 54 95 150 158 152 143 132 126 124 125 128 129 129 131 134 136 138 142 148 157 173 191 203 204 198 187 177 171 169 159
350 356 356 356 359 1 0 356 343 318 288 271 278 295 322 350 353 351 357 4 9 10 8 12 22 31 27 19 14 10 10 13 17 19 20 22 25 26 27 28 27 26 25 25 29 36 40 34 28 34 41 43 49 58 63 75 107 130 135 130 121 115 115 120 124 126 127 128 129 131 134 137 145 156 167 176 185 188 180 170 169 170 163 154 154
340 350 352 355 0 3 1 359 351 334 302 266 267 295 341 2 4 6 6 5 8 16 16 20 35 44 33 25 24 21 20 23 28 29 26 24 24 25 25 25 27 28 30 34 39 41 37 34 38 47 54 56 62 72 83 95 107 113 114 111 107 105 107 110 113 115 118 123 125 126 129 135 143 151 160 170 174 169 157 153 159 159 151 153 164
329 346 352 357 3 5 4 2 357 352 355 44 53 29 23 27 30 29 20 16 22 29 27 31 44 47 38 37 40 40 38 37 37 35 33 31 28 26 21 19 21 25 32 41 44 40 37 47 63 71 76 80 84 88 94 99 103 106 109 109 107 105 103 101 99 98 99 104 110 116 124 133 139 142 150 157 156 151 149 151 155 152 147 152 166
320 344 352 357 5 10 8 5 4 11 34 55 41 21 54 76 77 65 50 41 38 40 43 44 45 46 49 51 52 52 53 54 53 52 50 46 43 37 29 22 22 27 37 50 56 57 61 74 84 87 89 92 93 95 99 102 104 108 111 111 109 106 102 97 93 91 92 94 100 111 124 131 132 134 143 147 146 146 150 155 155 153 153 154 158
305 344 353 357 6 12 13 13 15 19 23 30 41 64 87 100 100 85 67 55 47 49 56 52 43 48 57 58 55 54 56 59 59 59 58 54 51 49 45 39 39 47 58 68 75 79 83 89 94 96 96 97 98 99 102 105 108 111 113 112 108 104 98 90 82 79 85 95 104 111 119 123 124 130 142 148 146 145 147 149 149 154 163 165 157
277 348 357 2 10 15 16 20 25 26 24 34 66 93 104 106 102 88 75 65 59 63 66 59 50 54 59 57 52 49 49 50 50 52 53 52 50 49 49 52 59 70 80 85 88 89 90 95 101 103 102 100 100 101 101 102 103 105 105 103 99 94 87 79 72 69 81 99 111 114 114 120 125 133 145 152 150 143 140 141 141 145 162 172 166
235 353 4 8 14 19 23 27 34 37 34 42 72 104 115 109 99 92 81 70 69 73 72 64 58 57 56 52 48 44 41 39 38 40 43 46 47 46 47 51 59 69 80 90 93 91 90 95 104 107 106 105 104 102 100 98 98 97 95 90 83 74 67 68 72 78 95 113 122 124 126 130 134 136 143 150 152 146 141 139 142 146 153 166 172
206 343 9 10 12 18 28 36 41 45 45 49 70 97 108 104 99 96 88 81 84 89 86 77 69 61 54 50 48 45 43 42 41 38 40 47 51 51 49 50 54 61 69 79 87 88 89 94 101 102 101 99 95 91 89 87 84 84 85 82 74 66 66 78 95 108 120 130 133 131 133 136 137 135 135 137 138 136 130 128 137 140 132 123 125
196 221 358 5 9 13 24 40 48 50 51 55 71 94 106 111 113 109 101 103 109 107 100 91 80 67 57 53 52 51 52 52 50 47 48 53 57 58 57 57 59 62 65 72 79 83 88 94 99 96 91 85 78 72 71 69 66 69 79 88 93 100 108 120 132 137 139 140 137 134 133 134 137 137 133 126 122 118 110 109 120 125 116 99 92
194 211 315 350 4 9 14 29 56 60 56 58 71 91 107 116 120 116 126 149 144 129 118 111 97 79 61 51 51 52 53 54 53 53 56 60 61 61 62 66 72 76 78 80 84 87 90 93 94 91 87 83 77 73 70 70 71 77 84 91 98 105 112 121 129 134 136 135 132 129 127 128 133 138 136 131 127 126 121 118 122 123 113 96 86